Saint Bonnet de Bellac- Haute Vienne - France
Donnes mto: mardi, 03/07/2012
Date Horaire Temp. E. Hum. E. P.atmo. Pluie Vent Direction Direction Ensoleilleme Solaire P. de rose Temp au vent Rafales
03/07/2012 00:00 14,4 C 71 % 1019,1 hPa 0,0 mm 0,0 km/h (0 Bft) O 270 0 min 0 W/m 9,2 C 14,4 C 0,0 km/h (0 Bft)
03/07/2012 00:10 14,2 C 71 % 1019,0 hPa 0,0 mm 0,0 km/h (0 Bft) O 270 0 min 0 W/m 9,0 C 14,2 C 0,0 km/h (0 Bft)
03/07/2012 00:20 13,9 C 72 % 1019,0 hPa 0,0 mm 0,0 km/h (0 Bft) O 270 0 min 0 W/m 8,9 C 13,9 C 0,0 km/h (0 Bft)
03/07/2012 00:30 13,8 C 73 % 1019,1 hPa 0,0 mm 0,0 km/h (0 Bft) O 270 0 min 0 W/m 9,0 C 13,8 C 0,0 km/h (0 Bft)
03/07/2012 00:40 13,6 C 74 % 1019,1 hPa 0,0 mm 0,0 km/h (0 Bft) O 270 0 min 0 W/m 9,1 C 13,6 C 0,0 km/h (0 Bft)
03/07/2012 00:50 13,4 C 74 % 1019,1 hPa 0,0 mm 0,0 km/h (0 Bft) O 270 0 min 0 W/m 8,9 C 13,4 C 0,0 km/h (0 Bft)
03/07/2012 01:00 13,2 C 75 % 1019,1 hPa 0,0 mm 0,0 km/h (0 Bft) O 270 0 min 0 W/m 8,9 C 13,2 C 0,0 km/h (0 Bft)
03/07/2012 01:10 13,1 C 76 % 1019,1 hPa 0,0 mm 0,0 km/h (0 Bft) O 270 0 min 0 W/m 9,0 C 13,1 C 0,0 km/h (0 Bft)
03/07/2012 01:20 12,8 C 76 % 1019,1 hPa 0,0 mm 0,0 km/h (0 Bft) O 270 0 min 0 W/m 8,7 C 12,8 C 0,0 km/h (0 Bft)
03/07/2012 01:30 12,6 C 76 % 1019,0 hPa 0,0 mm 0,0 km/h (0 Bft) O 270 0 min 0 W/m 8,5 C 12,6 C 0,0 km/h (0 Bft)
03/07/2012 01:40 12,5 C 77 % 1019,0 hPa 0,0 mm 0,0 km/h (0 Bft) O 270 0 min 0 W/m 8,6 C 12,5 C 0,0 km/h (0 Bft)
03/07/2012 01:50 12,4 C 78 % 1019,0 hPa 0,0 mm 0,0 km/h (0 Bft) O 270 0 min 0 W/m 8,7 C 12,4 C 0,0 km/h (0 Bft)
03/07/2012 02:00 12,3 C 79 % 1019,0 hPa 0,0 mm 0,0 km/h (0 Bft) O 270 0 min 0 W/m 8,8 C 12,3 C 0,0 km/h (0 Bft)
03/07/2012 02:10 12,2 C 80 % 1019,1 hPa 0,0 mm 0,0 km/h (0 Bft) O 270 0 min 0 W/m 8,9 C 12,2 C 0,0 km/h (0 Bft)
03/07/2012 02:20 12,2 C 81 % 1018,9 hPa 0,0 mm 0,0 km/h (0 Bft) O 270 0 min 0 W/m 9,0 C 12,2 C 0,0 km/h (0 Bft)
03/07/2012 02:30 12,3 C 81 % 1018,9 hPa 0,0 mm 0,0 km/h (0 Bft) O 270 0 min 0 W/m 9,1 C 12,3 C 0,0 km/h (0 Bft)
03/07/2012 02:40 12,3 C 81 % 1018,8 hPa 0,0 mm 0,0 km/h (0 Bft) O 270 0 min 0 W/m 9,1 C 12,3 C 0,0 km/h (0 Bft)
03/07/2012 02:50 12,2 C 81 % 1018,8 hPa 0,0 mm 0,0 km/h (0 Bft) O 270 0 min 0 W/m 9,0 C 12,2 C 0,0 km/h (0 Bft)
03/07/2012 03:02 12,2 C 82 % 1018,7 hPa 0,0 mm 0,0 km/h (0 Bft) O 270 0 min 0 W/m 9,2 C 12,2 C 0,0 km/h (0 Bft)
03/07/2012 03:10 12,1 C 83 % 1018,7 hPa 0,0 mm 0,0 km/h (0 Bft) O 270 0 min 0 W/m 9,3 C 12,1 C 0,0 km/h (0 Bft)
03/07/2012 03:20 11,9 C 83 % 1018,7 hPa 0,0 mm 0,0 km/h (0 Bft) O 270 0 min 0 W/m 9,1 C 11,9 C 0,0 km/h (0 Bft)
03/07/2012 03:30 11,8 C 83 % 1018,7 hPa 0,0 mm 0,0 km/h (0 Bft) O 270 0 min 0 W/m 9,0 C 11,8 C 0,0 km/h (0 Bft)
03/07/2012 03:40 11,7 C 83 % 1018,8 hPa 0,0 mm 0,0 km/h (0 Bft) O 270 0 min 0 W/m 8,9 C 11,7 C 0,0 km/h (0 Bft)
03/07/2012 03:50 11,5 C 83 % 1018,8 hPa 0,0 mm 0,0 km/h (0 Bft) O 270 0 min 0 W/m 8,7 C 11,5 C 0,0 km/h (0 Bft)
03/07/2012 04:00 11,4 C 83 % 1018,6 hPa 0,0 mm 0,0 km/h (0 Bft) E-SE 112 0 min 0 W/m 8,6 C 11,4 C 0,0 km/h (0 Bft)
03/07/2012 04:10 11,5 C 84 % 1018,5 hPa 0,0 mm 1,8 km/h (1 Bft) E-SE 112 0 min 0 W/m 8,9 C 11,5 C 4,0 km/h (1 Bft)
03/07/2012 04:20 11,6 C 85 % 1018,6 hPa 0,0 mm 2,2 km/h (1 Bft) E-SE 112 0 min 0 W/m 9,2 C 11,6 C 6,5 km/h (2 Bft)
03/07/2012 04:30 11,6 C 86 % 1018,4 hPa 0,0 mm 4,7 km/h (1 Bft) E 90 0 min 0 W/m 9,3 C 11,6 C 7,6 km/h (2 Bft)
03/07/2012 04:40 11,6 C 86 % 1018,4 hPa 0,0 mm 2,9 km/h (1 Bft) E-SE 112 0 min 0 W/m 9,3 C 11,6 C 3,2 km/h (1 Bft)
03/07/2012 04:50 11,6 C 86 % 1018,3 hPa 0,0 mm 0,4 km/h (0 Bft) E-NE 67 0 min 0 W/m 9,3 C 11,6 C 3,6 km/h (1 Bft)
03/07/2012 05:00 11,6 C 86 % 1018,2 hPa 0,0 mm 0,0 km/h (0 Bft) E 90 0 min 0 W/m 9,3 C 11,6 C 3,2 km/h (1 Bft)
03/07/2012 05:10 11,6 C 86 % 1018,1 hPa 0,0 mm 0,7 km/h (0 Bft) E 90 0 min 0 W/m 9,3 C 11,6 C 3,6 km/h (1 Bft)
03/07/2012 05:20 11,7 C 86 % 1018,1 hPa 0,0 mm 1,8 km/h (1 Bft) E-SE 112 0 min 0 W/m 9,4 C 11,7 C 4,3 km/h (1 Bft)
03/07/2012 05:30 11,7 C 86 % 1018,1 hPa 0,0 mm 0,0 km/h (0 Bft) SE 135 0 min 0 W/m 9,4 C 11,7 C 0,0 km/h (0 Bft)
03/07/2012 05:40 11,7 C 86 % 1018,1 hPa 0,0 mm 0,0 km/h (0 Bft) E-NE 67 0 min 0 W/m 9,4 C 11,7 C 0,0 km/h (0 Bft)
03/07/2012 05:50 11,7 C 86 % 1018,3 hPa 0,0 mm 0,0 km/h (0 Bft) E-NE 67 0 min 0 W/m 9,4 C 11,7 C 0,0 km/h (0 Bft)
03/07/2012 06:00 11,7 C 86 % 1018,3 hPa 0,0 mm 0,7 km/h (0 Bft) SE 135 0 min 0 W/m 9,4 C 11,7 C 1,4 km/h (1 Bft)
03/07/2012 06:10 11,6 C 86 % 1018,3 hPa 0,0 mm 0,0 km/h (0 Bft) E-SE 112 0 min 0 W/m 9,3 C 11,6 C 0,0 km/h (0 Bft)
03/07/2012 06:20 11,6 C 86 % 1018,4 hPa 0,0 mm 0,0 km/h (0 Bft) E-NE 67 0 min 0 W/m 9,3 C 11,6 C 0,0 km/h (0 Bft)
03/07/2012 06:30 11,5 C 86 % 1018,3 hPa 0,0 mm 0,4 km/h (0 Bft) E 90 0 min 0 W/m 9,2 C 11,5 C 2,9 km/h (1 Bft)
03/07/2012 06:40 11,5 C 86 % 1018,3 hPa 0,0 mm 1,4 km/h (1 Bft) E 90 0 min 0 W/m 9,2 C 11,5 C 1,4 km/h (1 Bft)
03/07/2012 06:50 11,5 C 86 % 1018,2 hPa 0,0 mm 1,4 km/h (1 Bft) SE 135 0 min 0 W/m 9,2 C 11,5 C 3,2 km/h (1 Bft)
03/07/2012 07:00 11,6 C 87 % 1018,2 hPa 0,0 mm 1,1 km/h (1 Bft) E-SE 112 0 min 0 W/m 9,5 C 11,6 C 1,1 km/h (1 Bft)
03/07/2012 07:10 11,8 C 87 % 1018,1 hPa 0,0 mm 1,1 km/h (1 Bft) E 90 0 min 0 W/m 9,7 C 11,8 C 3,6 km/h (1 Bft)
03/07/2012 07:20 11,8 C 87 % 1018,2 hPa 0,0 mm 0,4 km/h (0 Bft) E-SE 112 0 min 0 W/m 9,7 C 11,8 C 0,4 km/h (0 Bft)
03/07/2012 07:30 12,1 C 87 % 1018,3 hPa 0,0 mm 1,4 km/h (1 Bft) S-SE 157 0 min 0 W/m 10,0 C 12,1 C 4,3 km/h (1 Bft)
03/07/2012 07:40 12,4 C 87 % 1018,4 hPa 0,0 mm 0,0 km/h (0 Bft) SE 135 0 min 0 W/m 10,3 C 12,4 C 0,0 km/h (0 Bft)
03/07/2012 07:50 12,9 C 87 % 1018,3 hPa 0,0 mm 1,4 km/h (1 Bft) E-SE 112 0 min 0 W/m 10,8 C 12,9 C 3,2 km/h (1 Bft)
03/07/2012 08:00 13,4 C 86 % 1018,2 hPa 0,0 mm 1,8 km/h (1 Bft) E 90 0 min 0 W/m 11,1 C 13,4 C 4,3 km/h (1 Bft)
03/07/2012 08:10 13,7 C 85 % 1018,2 hPa 0,0 mm 0,0 km/h (0 Bft) SE 135 0 min 0 W/m 11,2 C 13,7 C 0,0 km/h (0 Bft)
03/07/2012 08:20 13,8 C 85 % 1018,2 hPa 0,0 mm 0,0 km/h (0 Bft) E 90 0 min 0 W/m 11,3 C 13,8 C 0,0 km/h (0 Bft)
03/07/2012 08:30 14,2 C 85 % 1018,3 hPa 0,0 mm 1,1 km/h (1 Bft) E 90 0 min 0 W/m 11,7 C 14,2 C 3,2 km/h (1 Bft)
03/07/2012 08:40 14,9 C 84 % 1018,3 hPa 0,0 mm 0,0 km/h (0 Bft) S-SE 157 0 min 0 W/m 12,2 C 14,9 C 0,0 km/h (0 Bft)
03/07/2012 08:50 15,6 C 83 % 1018,2 hPa 0,0 mm 0,4 km/h (0 Bft) SE 135 0 min 0 W/m 12,7 C 15,6 C 3,6 km/h (1 Bft)
03/07/2012 09:00 16,6 C 82 % 1018,2 hPa 0,0 mm 1,1 km/h (1 Bft) E-SE 112 0 min 0 W/m 13,5 C 16,6 C 4,3 km/h (1 Bft)
03/07/2012 09:10 17,5 C 77 % 1018,2 hPa 0,0 mm 3,2 km/h (1 Bft) S-SO 202 0 min 0 W/m 13,4 C 17,5 C 3,6 km/h (1 Bft)
03/07/2012 09:20 17,9 C 77 % 1018,1 hPa 0,0 mm 0,0 km/h (0 Bft) S-SE 157 0 min 0 W/m 13,8 C 17,9 C 1,4 km/h (1 Bft)
03/07/2012 09:30 18,2 C 77 % 1018,2 hPa 0,0 mm 0,0 km/h (0 Bft) N 360 0 min 0 W/m 14,1 C 18,2 C 0,0 km/h (0 Bft)
03/07/2012 09:40 18,6 C 75 % 1018,1 hPa 0,0 mm 0,0 km/h (0 Bft) E-SE 112 0 min 0 W/m 14,1 C 18,6 C 0,0 km/h (0 Bft)
03/07/2012 09:50 18,8 C 75 % 1018,1 hPa 0,0 mm 0,0 km/h (0 Bft) E-SE 112 0 min 0 W/m 14,3 C 18,8 C 0,0 km/h (0 Bft)
03/07/2012 10:00 19,2 C 74 % 1017,8 hPa 0,0 mm 0,4 km/h (0 Bft) E-SE 112 0 min 0 W/m 14,4 C 19,2 C 4,0 km/h (1 Bft)
03/07/2012 10:10 19,5 C 68 % 1017,9 hPa 0,0 mm 0,4 km/h (0 Bft) S 180 0 min 0 W/m 13,4 C 19,5 C 3,2 km/h (1 Bft)
03/07/2012 10:20 20,1 C 66 % 1017,9 hPa 0,0 mm 0,0 km/h (0 Bft) S-SO 202 0 min 0 W/m 13,5 C 20,1 C 0,0 km/h (0 Bft)
03/07/2012 10:30 20,6 C 60 % 1018,0 hPa 0,0 mm 0,7 km/h (0 Bft) S-SO 202 0 min 0 W/m 12,6 C 20,6 C 4,0 km/h (1 Bft)
03/07/2012 10:40 21,1 C 57 % 1017,9 hPa 0,0 mm 0,0 km/h (0 Bft) S-SO 202 0 min 0 W/m 12,2 C 21,1 C 0,0 km/h (0 Bft)
03/07/2012 10:50 21,8 C 58 % 1017,9 hPa 0,0 mm 0,0 km/h (0 Bft) O-SO 247 0 min 0 W/m 13,2 C 21,8 C 0,0 km/h (0 Bft)
03/07/2012 11:00 22,2 C 54 % 1017,8 hPa 0,0 mm 0,0 km/h (0 Bft) O 270 0 min 0 W/m 12,4 C 22,2 C 0,0 km/h (0 Bft)
03/07/2012 11:10 22,4 C 50 % 1017,7 hPa 0,0 mm 2,5 km/h (1 Bft) S 180 0 min 0 W/m 11,5 C 22,4 C 4,3 km/h (1 Bft)
03/07/2012 11:20 22,9 C 51 % 1017,8 hPa 0,0 mm 0,4 km/h (0 Bft) S 180 0 min 0 W/m 12,2 C 22,9 C 4,3 km/h (1 Bft)
03/07/2012 11:30 23,4 C 49 % 1017,7 hPa 0,0 mm 1,1 km/h (1 Bft) SO 225 0 min 0 W/m 12,1 C 23,4 C 4,0 km/h (1 Bft)
03/07/2012 11:40 23,8 C 47 % 1017,7 hPa 0,0 mm 0,4 km/h (0 Bft) O-SO 247 0 min 0 W/m 11,8 C 23,8 C 4,0 km/h (1 Bft)
03/07/2012 11:50 24,1 C 46 % 1017,6 hPa 0,0 mm 0,0 km/h (0 Bft) O-SO 247 0 min 0 W/m 11,7 C 24,1 C 3,2 km/h (1 Bft)
03/07/2012 12:00 24,3 C 46 % 1017,7 hPa 0,0 mm 0,4 km/h (0 Bft) S-SO 202 0 min 0 W/m 11,9 C 24,3 C 3,6 km/h (1 Bft)
03/07/2012 12:10 24,6 C 45 % 1017,7 hPa 0,0 mm 1,8 km/h (1 Bft) S 180 0 min 0 W/m 11,9 C 24,6 C 6,5 km/h (2 Bft)
03/07/2012 12:20 24,8 C 46 % 1017,7 hPa 0,0 mm 1,8 km/h (1 Bft) O-NO 292 0 min 0 W/m 12,4 C 24,8 C 1,8 km/h (1 Bft)
03/07/2012 12:30 24,9 C 41 % 1017,7 hPa 0,0 mm 4,3 km/h (1 Bft) S-SO 202 0 min 0 W/m 10,7 C 24,9 C 4,3 km/h (1 Bft)
03/07/2012 12:40 25,0 C 44 % 1017,7 hPa 0,0 mm 1,4 km/h (1 Bft) SO 225 0 min 0 W/m 11,9 C 25,0 C 4,3 km/h (1 Bft)
03/07/2012 12:50 25,1 C 43 % 1017,6 hPa 0,0 mm 0,7 km/h (0 Bft) O-NO 292 0 min 0 W/m 11,6 C 25,1 C 6,1 km/h (2 Bft)
03/07/2012 13:00 25,4 C 42 % 1017,5 hPa 0,0 mm 3,6 km/h (1 Bft) S 180 0 min 0 W/m 11,5 C 25,4 C 6,5 km/h (2 Bft)
03/07/2012 13:10 25,4 C 46 % 1017,4 hPa 0,0 mm 1,1 km/h (1 Bft) SO 225 0 min 0 W/m 12,9 C 25,4 C 4,3 km/h (1 Bft)
03/07/2012 13:20 25,5 C 45 % 1017,4 hPa 0,0 mm 1,8 km/h (1 Bft) O-NO 292 0 min 0 W/m 12,7 C 25,5 C 4,3 km/h (1 Bft)
03/07/2012 13:30 25,8 C 47 % 1017,3 hPa 0,0 mm 0,4 km/h (0 Bft) O-SO 247 0 min 0 W/m 13,6 C 25,8 C 0,4 km/h (0 Bft)
03/07/2012 13:40 26,0 C 46 % 1017,2 hPa 0,0 mm 0,0 km/h (0 Bft) O-SO 247 0 min 0 W/m 13,5 C 26,0 C 2,9 km/h (1 Bft)
03/07/2012 13:50 26,0 C 47 % 1017,2 hPa 0,0 mm 1,8 km/h (1 Bft) SE 135 0 min 0 W/m 13,8 C 26,0 C 4,0 km/h (1 Bft)
03/07/2012 14:00 25,9 C 47 % 1017,0 hPa 0,0 mm 1,8 km/h (1 Bft) S-SE 157 0 min 0 W/m 13,7 C 25,9 C 4,0 km/h (1 Bft)
03/07/2012 14:10 26,3 C 47 % 1016,9 hPa 0,0 mm 4,0 km/h (1 Bft) S 180 0 min 0 W/m 14,1 C 26,3 C 8,3 km/h (2 Bft)
03/07/2012 14:20 26,3 C 46 % 1016,7 hPa 0,0 mm 0,0 km/h (0 Bft) NO 315 0 min 0 W/m 13,7 C 26,3 C 0,0 km/h (0 Bft)
03/07/2012 14:30 26,6 C 46 % 1016,7 hPa 0,0 mm 4,0 km/h (1 Bft) O 270 0 min 0 W/m 14,0 C 26,6 C 9,7 km/h (2 Bft)
03/07/2012 14:40 26,8 C 46 % 1016,7 hPa 0,0 mm 1,4 km/h (1 Bft) S-SO 202 0 min 0 W/m 14,2 C 26,8 C 1,4 km/h (1 Bft)
03/07/2012 14:50 26,6 C 45 % 1016,5 hPa 0,0 mm 2,2 km/h (1 Bft) E-NE 67 0 min 0 W/m 13,7 C 26,6 C 4,0 km/h (1 Bft)
03/07/2012 15:00 26,9 C 46 % 1016,4 hPa 0,0 mm 0,7 km/h (0 Bft) NO 315 0 min 0 W/m 14,3 C 26,9 C 0,7 km/h (0 Bft)
03/07/2012 15:10 27,2 C 45 % 1016,4 hPa 0,0 mm 0,0 km/h (0 Bft) O-SO 247 0 min 0 W/m 14,2 C 27,2 C 0,0 km/h (0 Bft)
03/07/2012 15:20 27,2 C 45 % 1016,3 hPa 0,0 mm 0,7 km/h (0 Bft) SO 225 0 min 0 W/m 14,2 C 27,2 C 4,0 km/h (1 Bft)
03/07/2012 15:30 27,2 C 46 % 1016,1 hPa 0,0 mm 0,0 km/h (0 Bft) O-SO 247 0 min 0 W/m 14,6 C 27,2 C 0,0 km/h (0 Bft)
03/07/2012 15:40 27,3 C 46 % 1016,0 hPa 0,0 mm 0,0 km/h (0 Bft) O 270 0 min 0 W/m 14,6 C 27,3 C 0,0 km/h (0 Bft)
03/07/2012 15:50 27,3 C 46 % 1016,0 hPa 0,0 mm 2,5 km/h (1 Bft) O-SO 247 0 min 0 W/m 14,6 C 27,3 C 2,5 km/h (1 Bft)
03/07/2012 16:00 27,3 C 47 % 1015,7 hPa 0,0 mm 2,5 km/h (1 Bft) SE 135 0 min 0 W/m 15,0 C 27,3 C 7,2 km/h (2 Bft)
03/07/2012 16:10 27,3 C 46 % 1015,7 hPa 0,0 mm 3,2 km/h (1 Bft) SO 225 0 min 0 W/m 14,6 C 27,3 C 6,1 km/h (2 Bft)
03/07/2012 16:20 27,4 C 47 % 1015,6 hPa 0,0 mm 0,0 km/h (0 Bft) O 270 0 min 0 W/m 15,1 C 27,4 C 3,2 km/h (1 Bft)
03/07/2012 16:30 27,5 C 46 % 1015,5 hPa 0,0 mm 4,3 km/h (1 Bft) O 270 0 min 0 W/m 14,8 C 27,5 C 4,3 km/h (1 Bft)
03/07/2012 16:40 27,4 C 47 % 1015,5 hPa 0,0 mm 1,8 km/h (1 Bft) S-SO 202 0 min 0 W/m 15,1 C 27,4 C 4,0 km/h (1 Bft)
03/07/2012 16:50 27,6 C 47 % 1015,4 hPa 0,0 mm 1,4 km/h (1 Bft) O-SO 247 0 min 0 W/m 15,3 C 27,6 C 1,4 km/h (1 Bft)
03/07/2012 17:00 27,8 C 46 % 1015,4 hPa 0,0 mm 0,0 km/h (0 Bft) O-SO 247 0 min 0 W/m 15,1 C 27,8 C 0,0 km/h (0 Bft)
03/07/2012 17:10 27,8 C 47 % 1015,3 hPa 0,0 mm 0,0 km/h (0 Bft) S 180 0 min 0 W/m 15,4 C 27,8 C 4,3 km/h (1 Bft)
03/07/2012 17:20 27,9 C 47 % 1015,2 hPa 0,0 mm 0,0 km/h (0 Bft) O-SO 247 0 min 0 W/m 15,5 C 27,9 C 0,0 km/h (0 Bft)
03/07/2012 17:30 28,1 C 47 % 1015,0 hPa 0,0 mm 2,2 km/h (1 Bft) O-SO 247 0 min 0 W/m 15,7 C 28,1 C 4,3 km/h (1 Bft)
03/07/2012 17:40 28,4 C 47 % 1015,0 hPa 0,0 mm 0,0 km/h (0 Bft) O-SO 247 0 min 0 W/m 16,0 C 28,4 C 0,0 km/h (0 Bft)
_ Min-Heure 04:00 12:30 17:40 - 17:40 - - - - 01:30 04:00 17:40
Minimum _ 11,4 C 41 % 1015,0 hPa - 0,0 km/h (0 Bft) - - - - 8,5 C 11,4 C 0,0 km/h (0 Bft)
_ Max-Heure 17:40 07:50 02:10 17:40 04:30 - - 17:40 17:40 17:40 17:40 14:30
Maximum _ 28,4 C 87 % 1019,1 hPa 0,0 mm 4,7 km/h
E (1 Bft)
- - 0 min 0 W/m 16,0 C 28,4 C 9,7 km/h
O (2 Bft)
Moyenne _ 18,4 C 67 % 1017,8 hPa #0,0 mm 0,8 km/h (0 Bft) O - #0 min. 0 W/m 11,5 C 18,4 C 2,1 km/h (1 Bft)
Saint Bonnet de Bellac- Haute Vienne - France